Weather History for West Plains, MO

Change the Weather History Date:

Wednesday, March 19, 2014

  Actual Average Record
Temperature  
Mean Temperature 44 °F 49 °F  
Max Temperature 53 °F 61 °F 81 °F (1969)
Min Temperature 35 °F 37 °F 12 °F (1965)
Degree Days  
Heating Degree Days 21 16  
Month to date heating degree days 471 375  
Since 1 July heating degree days 4269 3839  
Cooling Degree Days 0 0  
Month to date cooling degree days 0 0  
Year to date cooling degree days 0 0  
Moisture  
Dew Point 33 °F    
Average Humidity 62    
Maximum Humidity 86    
Minimum Humidity 38    
Precipitation  
Precipitation 0.00 in 0.14 in 2.71 in (2002)
Month to date precipitation 2.68 2.46  
Year to date precipitation 4.53 8.02  
Sea Level Pressure  
Sea Level Pressure 29.99 in    
Wind  
Wind Speed 11 mph (West)    
Max Wind Speed 24 mph    
Max Gust Speed 32 mph    
Visibility 10 miles    
Events      
T = Trace of Precipitation, MM = Missing Value Source: NWS Daily Summary

Daily Weather History Graph

Daily Weather History Graph

Search for Another Location

Airport:

Trip Planner

Search our weather history database for the weather conditions in past years. The results will help you decide how hot, cold, wet, or windy it might be!

Date:

Astronomy

Mar. 19, 2014 Rise Set
Actual Time 7:12 AM CDT 7:18 PM CDT
Civil Twilight 6:46 AM CDT 7:44 PM CDT
Nautical Twilight 6:16 AM CDT 8:14 PM CDT
Astronomical Twilight 5:46 AM CDT 8:45 PM CDT
Moon 10:32 PM CDT (3/19) 8:43 AM CDT (3/19)
Length of Visible Light 12h 57m
Length of Day
12h 05m
Waning Gibbous, 91% of the Moon is Illuminated
Mar 19
Waning Gibbous
Mar 23
Last Quarter
Mar 30
New
Apr 7
First Quarter
Apr 15
Full

Hourly Weather History & Observations

Time (CDT) Temp. Windchill Dew Point Humidity Pressure Visibility Wind Dir Wind Speed Gust Speed Precip Events Conditions
12:53 AM 51.1 °F - 44.1 °F 77% 29.70 in 10.0 mi South 9.2 mph - N/A   Clear
1:53 AM 51.1 °F - 45.0 °F 80% 29.71 in 10.0 mi SSW 6.9 mph - N/A   Mostly Cloudy
2:53 AM 48.9 °F - 45.0 °F 86% 29.71 in 10.0 mi SW 8.1 mph - N/A   Clear
3:53 AM 48.0 °F - 39.9 °F 74% 29.74 in 10.0 mi WSW 9.2 mph - N/A   Clear
4:53 AM 44.1 °F 36.5 °F 32.0 °F 63% 29.79 in 10.0 mi WSW 17.3 mph 26.5 mph N/A   Clear
5:53 AM 43.0 °F 36.0 °F 32.0 °F 65% 29.83 in 10.0 mi West 13.8 mph 21.9 mph N/A   Overcast
6:44 AM 43.0 °F 36.8 °F 33.1 °F 68% 29.85 in 10.0 mi West 11.5 mph - N/A   Overcast
6:53 AM 43.0 °F 37.2 °F 33.1 °F 68% 29.86 in 10.0 mi West 10.4 mph 24.2 mph N/A   Overcast
7:53 AM 42.1 °F 33.6 °F 32.0 °F 67% 29.91 in 7.0 mi WNW 18.4 mph 25.3 mph N/A   Overcast
8:53 AM 42.1 °F 33.9 °F 33.1 °F 70% 29.95 in 6.0 mi WNW 17.3 mph 26.5 mph N/A   Haze
9:53 AM 43.0 °F 36.8 °F 33.1 °F 68% 29.99 in 7.0 mi WNW 11.5 mph 23.0 mph N/A   Overcast
10:53 AM 43.0 °F 35.1 °F 33.1 °F 68% 30.04 in 7.0 mi WNW 17.3 mph 23.0 mph N/A   Overcast
11:53 AM 43.0 °F 35.4 °F 32.0 °F 65% 30.08 in 10.0 mi WNW 16.1 mph 23.0 mph N/A   Overcast
12:53 PM 45.0 °F 38.2 °F 30.9 °F 58% 30.09 in 10.0 mi WNW 15.0 mph 21.9 mph N/A   Mostly Cloudy
1:28 PM 48.0 °F - 32.0 °F 54% 30.08 in 10.0 mi NW 11.5 mph 23.0 mph N/A   Scattered Clouds
1:53 PM 48.9 °F - 32.0 °F 52% 30.08 in 10.0 mi West 15.0 mph 24.2 mph N/A   Partly Cloudy
2:53 PM 51.1 °F - 30.9 °F 46% 30.08 in 10.0 mi WNW 13.8 mph 24.2 mph N/A   Clear
3:53 PM 52.0 °F - 30.0 °F 43% 30.08 in 10.0 mi WNW 12.7 mph 19.6 mph N/A   Clear
4:53 PM 53.1 °F - 28.9 °F 40% 30.08 in 10.0 mi WNW 12.7 mph - N/A   Clear
5:53 PM 52.0 °F - 28.9 °F 41% 30.09 in 10.0 mi NW 10.4 mph - N/A   Clear
6:53 PM 48.9 °F - 27.0 °F 43% 30.11 in 10.0 mi NW 8.1 mph - N/A   Clear
7:53 PM 41.0 °F 39.0 °F 27.0 °F 57% 30.13 in 10.0 mi WSW 3.5 mph - N/A   Clear
8:53 PM 39.0 °F 35.7 °F 28.9 °F 67% 30.14 in 10.0 mi WSW 4.6 mph - N/A   Clear
9:53 PM 36.0 °F 33.3 °F 28.0 °F 73% 30.17 in 10.0 mi West 3.5 mph - N/A   Clear
10:53 PM 37.9 °F 33.5 °F 28.9 °F 70% 30.18 in 10.0 mi WSW 5.8 mph - N/A   Clear
11:53 PM 36.0 °F 31.1 °F 28.0 °F 73% 30.18 in 10.0 mi WSW 5.8 mph - N/A   Clear